sat.trackr.live / text

‹ back to catalog

LUDI TANCE-4 01A

NORAD 57624 · 2023-120A

PAYLOAD ACTIVE UNKNOWN

§ Identity

Operator
Country
PRC
Launch date
2023-08-12
Launch site
XICLF
Launch vehicle
Mass (kg)
RCS (m²)

Purposes: comms

External: N2YO · Heavens-Above · Gunter

§ Orbital elements

Epoch: 2026-09-18T18:32:38.625792Z

Period
1,436.03 min
Inclination
15.0454°
Eccentricity
0.0003588
Mean motion
1.00276204 rev/d
Perigee alt
35,770.2 km
Apogee alt
35,800.5 km
Semi-major
42,163.5 km
B*
0.0000e+0
RAAN
191.6702°
Arg perigee
42.0879°
Mean anomaly
131.6221°
Rev number
1,148

§ Raw data

LUDI TANCE-4 01A1 57624U 23120A   26261.77266928 -.00000196  00000+0  00000+0 0  99912 57624  15.0454 191.6702 0003588  42.0879 131.6221  1.00276204 11487

JSON: /api/v1/satellites/57624 · /tle

For live sub-satellite position, see the globe view (requires WebGL).

§ Visibility from observer

Set your observer location to see the next 7 days of passes ≥ 10°. The values pass through the URL so the page stays shareable.

No JS? Fill the form by hand. The geolocation button needs JavaScript.